[[{"header":{"parameterUnit":"m.s-1","parameterCategory":1,"la1":30.2991,"la2":30.254,"lo1":-89.0895,"lo2":-89.0444,"dy":0.0017,"dx":0.0017,"nx":28,"ny":28,"refTime":"2023-08-12T21:00:00:Z","depth":0,"parameterNumber":2,"parameterNumberName":"U-component_of_WINDS"},"data":[0,0,0,0,0,0,0,0,0,0,0,0,0,0,0,0,0,0,0,0,0,0,0,0,0,0,0,0,0,0,0,0,0,0,0,0,0,0,0,0,0,0,0,0,0,0,0,0,0,0,0,0,0,0,0,0,0,0,4.2027,4.2028,0,4.2077,4.2077,4.2078,4.197,4.1967,4.1963,4.196,4.2009,4.2013,4.2018,0,0,0,0,0,0,0,0,0,0,0,0,0,4.1837,4.1842,4.2027,4.2028,4.2029,4.2076,4.2077,4.2078,4.1971,4.1967,4.1962,4.1959,4.2007,4.2013,4.2018,0,0,0,0,0,0,0,0,0,0,0,0,0,4.1907,4.1843,4.2027,4.1981,4.1977,4.2076,4.2077,4.2078,4.1972,4.1967,4.1961,4.1957,4.2006,4.2012,4.2019,4.2164,0,0,4.204,4.2042,0,0,0,0,0,0,0,0,4.1903,4.1914,4.1987,4.1984,4.198,4.2012,4.2028,4.2107,4.1973,4.1974,4.196,4.1954,4.2014,4.202,4.204,4.2167,4.2169,4.204,4.2044,4.2047,4.2049,0,0,0,0,0,0,0,4.1898,4.1911,4.2047,4.1988,4.1984,4.1957,4.1961,4.2042,4.2022,4.1973,4.1966,4.1973,4.2011,4.2034,4.2041,4.2169,4.204,4.2046,4.205,4.2053,4.2414,4.2419,0,0,0,0,0,0,4.19,4.1908,4.2045,4.2048,4.1928,4.1964,4.1969,4.2007,4.2021,4.2018,4.1977,4.1968,4.2025,4.2033,4.2042,4.221,4.2047,4.2053,4.2057,4.2409,4.2415,4.2421,0,0,0,0,0,0,4.1896,4.1913,4.2043,4.1976,4.199,4.1973,4.2017,4.2011,4.2033,4.2024,4.202,4.2005,4.2021,4.2032,4.2134,4.2211,4.2056,4.2063,4.2402,4.2411,4.2418,4.255,0,0,0,0,0,0,4.1891,4.1912,4.1968,4.1978,4.1994,4.2136,4.2022,4.2015,4.2046,4.2034,4.2049,4.2046,4.2018,4.2125,4.2141,4.2217,4.2068,4.2395,4.2406,4.2416,4.2539,4.2562,4.2582,0,0,0,0,0,4.1885,4.2004,4.1972,4.1989,4.2064,4.214,4.215,4.2115,4.2052,4.2107,4.2101,4.2046,4.22,4.2136,4.2153,4.2233,4.239,4.2403,4.2415,4.2529,4.2558,4.2581,0,0,0,0,0,0,4.2003,4.2004,4.1969,4.2095,4.2118,4.2122,4.2191,4.2147,4.2188,4.2175,4.213,4.2135,4.2244,4.2249,4.2177,4.2373,4.2284,4.2301,4.2365,4.2392,4.2413,4.2408,4.2074,0,0,0,0,0,4.2044,4.2107,4.2104,4.2216,4.2229,4.2209,4.2241,4.2212,4.2234,4.2244,4.2245,4.2268,4.2321,4.2357,4.2406,4.254,4.254,4.2603,4.2625,4.2642,4.2656,4.2724,4.2751,4.2462,4.2462,4.2462,0,0,4.2129,4.2138,4.218,4.224,4.2255,4.2319,4.2218,4.2291,4.2337,4.2254,4.2349,4.2352,4.2374,4.2492,4.2544,4.2499,4.2736,4.2658,4.2672,4.2677,4.274,4.2767,4.2791,4.2471,4.2469,4.2468,0,0,4.2316,4.233,4.2423,4.244,4.2464,4.2449,4.2471,4.2482,4.248,4.2575,4.2513,4.2568,4.2662,4.2679,4.2701,4.2894,4.2843,4.2911,4.3022,4.3089,4.3112,4.3131,4.3197,4.3222,4.2926,4.2926,4.2926,0,4.2418,4.2514,4.2476,4.2553,4.258,4.2508,4.2601,4.2619,4.2658,4.2677,4.2627,4.2741,4.2752,4.2871,4.2918,4.2939,4.2961,4.2908,4.3112,4.3131,4.3149,4.3211,4.3236,4.2934,4.2933,4.2932,4.2931,0,4.2637,4.2704,4.2776,4.2814,4.285,4.2935,4.2908,4.2948,4.2917,4.2907,4.3003,4.3014,4.3062,4.3089,4.3059,4.3203,4.3174,4.3119,4.3029,4.3185,4.3242,4.3266,4.2945,4.2942,4.294,4.2938,0,0,4.2899,4.2915,4.2942,4.2957,4.2978,4.3028,4.3109,4.3156,4.319,4.322,4.3284,4.3365,4.3313,4.3337,4.3309,4.3368,4.3516,4.3304,4.3304,4.3341,4.3672,4.3711,4.374,4.3484,4.3488,4.3492,4.3669,0,4.3081,4.3219,4.3187,4.3323,4.3383,4.3316,4.3385,4.3405,4.3398,4.3447,4.3438,4.3495,4.3424,4.3438,4.3493,4.3486,4.3581,4.3473,4.3541,4.3543,4.3534,4.377,4.3812,4.3979,4.3691,4.3695,4.3698,0,4.3312,4.3349,4.3492,4.35,4.3524,4.3587,4.3627,4.3675,4.3695,4.3686,4.3713,4.3672,4.375,4.3661,4.3766,4.3693,4.3719,4.372,4.3725,4.3728,4.3628,4.3776,4.4032,4.4056,4.3734,4.3731,4.3728,0,4.3485,4.3571,4.3666,4.3682,4.3696,4.3741,4.3749,4.3764,4.3794,4.3828,4.3847,4.3891,4.3914,4.3948,4.3919,4.3858,4.4028,4.3937,4.402,4.4021,4.4056,4.4054,4.4317,4.4079,4.4078,4.4078,4.4077,0,4.369,4.3779,4.3743,4.3802,4.3898,4.3861,4.3957,4.3957,4.3971,4.4026,4.3972,4.4025,4.3986,4.4035,4.4014,4.4102,4.4114,4.4107,4.41,4.411,4.4111,4.4124,4.4111,4.4085,4.4083,4.4082,4.4081,0,4.3898,4.3879,4.3977,4.3982,4.3985,4.4056,4.4059,4.4112,4.4101,4.4172,4.4187,4.4169,4.4225,4.42,4.4259,4.4244,4.4357,4.4336,4.435,4.4343,4.4426,4.4418,4.4705,4.4739,4.4482,4.4484,4.4487,0,4.4029,4.4095,4.4107,4.4141,4.4152,4.4207,4.4237,4.4202,4.4236,4.4263,4.4312,4.4363,4.4401,4.4493,4.4484,4.4528,4.4506,4.4603,4.4512,4.4519,4.4503,4.4498,4.4503,4.4621,4.4624,4.4626,4.4628,0,4.4262,4.4248,4.4294,4.4336,4.4374,4.4405,4.4432,4.4462,4.4428,4.4468,4.4524,4.4554,4.4613,4.4663,4.4702,4.4708,4.4662,4.4658,4.4678,4.4688,4.4692,4.4688,4.4397,4.465,4.4648,4.4647,4.4645,4.4645,4.4433,4.4487,4.4504,4.4556,4.4572,4.4598,4.4647,4.4642,4.4689,4.4734,4.4711,4.4776,4.4792,4.4839,4.4851,4.49,4.4861,4.4893,4.49,4.4907,4.4917,4.4688,4.4907,4.4907,4.4906,4.4906,4.4905,0,4.466,4.4667,4.4715,4.4754,4.4794,4.4749,4.4776,4.4812,4.487,4.4889,4.4928,4.4991,4.5039,4.5035,4.5079,4.5118,4.5098,4.5131,4.5126,4.5127,4.495,4.4926,4.5146,4.5146,4.5146,4.5146,4.5146,4.5146,4.4782,4.4872,4.486,4.4957,4.4963,4.5026,4.5044,4.5067,4.5082,4.5155,4.5195,4.5192,4.5201,4.5245,4.5287,4.5284,4.5301,4.5341,4.533,4.5164,4.514,4.5117,4.5094,4.5346,4.5346,4.5502,4.5504,4.5505]},{"header":{"parameterUnit":"m.s-1","parameterCategory":1,"la1":30.2991,"la2":30.254,"lo1":-89.0895,"lo2":-89.0444,"dy":0.0017,"dx":0.0017,"nx":28,"ny":28,"refTime":"2023-08-12T21:00:00:Z","depth":0,"parameterNumber":3,"parameterNumberName":"V-component_of_WINDS"},"data":[0,0,0,0,0,0,0,0,0,0,0,0,0,0,0,0,0,0,0,0,0,0,0,0,0,0,0,0,0,0,0,0,0,0,0,0,0,0,0,0,0,0,0,0,0,0,0,0,0,0,0,0,0,0,0,0,0,0,3.5603,3.5603,0,3.5642,3.5642,3.5643,3.5608,3.5607,3.5605,3.5604,3.5642,3.5644,3.5646,0,0,0,0,0,0,0,0,0,0,0,0,0,3.5495,3.5497,3.5603,3.5603,3.5604,3.5642,3.5642,3.5643,3.5608,3.5606,3.5605,3.5603,3.5641,3.5644,3.5646,0,0,0,0,0,0,0,0,0,0,0,0,0,3.5539,3.5498,3.5603,3.5591,3.559,3.5642,3.5642,3.5643,3.5609,3.5606,3.5604,3.5602,3.564,3.5643,3.5647,3.5711,0,0,3.5657,3.5659,0,0,0,0,0,0,0,0,3.5536,3.5543,3.5592,3.5592,3.5591,3.5618,3.5618,3.5665,3.5609,3.5602,3.5604,3.5601,3.5635,3.5639,3.5651,3.5712,3.5714,3.5658,3.566,3.5661,3.5662,0,0,0,0,0,0,0,3.5533,3.5541,3.5618,3.5593,3.5592,3.5583,3.5587,3.5627,3.563,3.5602,3.56,3.5605,3.5635,3.5648,3.5652,3.5715,3.5658,3.5661,3.5663,3.5664,3.5828,3.583,0,0,0,0,0,0,3.5532,3.5538,3.5617,3.5619,3.5558,3.5587,3.5591,3.5611,3.5629,3.563,3.5607,3.5603,3.5643,3.5648,3.5653,3.5727,3.5661,3.5665,3.5667,3.5826,3.5828,3.5831,0,0,0,0,0,0,3.553,3.5539,3.5615,3.5578,3.5587,3.5591,3.5614,3.5613,3.5626,3.5633,3.5633,3.562,3.5641,3.5648,3.5696,3.5728,3.5666,3.5669,3.5823,3.5826,3.5829,3.5877,0,0,0,0,0,0,3.5527,3.5539,3.5564,3.5579,3.5589,3.5659,3.5616,3.5616,3.5633,3.5628,3.5645,3.5646,3.564,3.5691,3.57,3.5731,3.5672,3.582,3.5824,3.5828,3.5872,3.5881,3.5889,0,0,0,0,0,3.5523,3.5576,3.5565,3.5575,3.5621,3.5661,3.5667,3.566,3.5635,3.566,3.5664,3.5645,3.5723,3.5696,3.5706,3.5739,3.5818,3.5823,3.5828,3.5869,3.588,3.5889,0,0,0,0,0,0,3.5564,3.5577,3.5566,3.5626,3.5642,3.5655,3.5686,3.5672,3.5696,3.5691,3.5681,3.5685,3.5735,3.5742,3.5712,3.58,3.5766,3.5774,3.5794,3.5805,3.5813,3.5809,3.5675,0,0,0,0,0,3.558,3.5612,3.5622,3.5673,3.5682,3.5683,3.57,3.5693,3.571,3.5717,3.5724,3.574,3.5768,3.5787,3.5813,3.5873,3.5875,3.5901,3.5909,3.5916,3.5922,3.5952,3.5963,3.5847,3.5847,3.5847,0,0,3.5613,3.5624,3.5645,3.5682,3.5694,3.5726,3.5689,3.5725,3.5749,3.5722,3.5768,3.5774,3.5791,3.5845,3.5869,3.5852,3.5954,3.5922,3.5928,3.593,3.5958,3.5969,3.5979,3.5851,3.585,3.585,0,0,3.5689,3.5702,3.5745,3.5758,3.5777,3.5777,3.5787,3.5802,3.5805,3.5851,3.5831,3.5858,3.5907,3.592,3.5933,3.6012,3.5995,3.6021,3.6064,3.6094,3.6103,3.6111,3.6137,3.6147,3.6027,3.6027,3.6027,0,3.5728,3.5777,3.5769,3.5806,3.5822,3.58,3.5842,3.5855,3.5882,3.5892,3.5873,3.5933,3.5943,3.5999,3.6018,3.603,3.604,3.6019,3.6102,3.611,3.6118,3.6143,3.6153,3.603,3.603,3.603,3.6029,0,3.5822,3.5856,3.5888,3.5914,3.5934,3.5974,3.5971,3.5991,3.5983,3.5984,3.603,3.6041,3.6068,3.6081,3.6073,3.6135,3.6124,3.6104,3.6069,3.6132,3.6155,3.6165,3.6034,3.6033,3.6032,3.6032,0,0,3.5925,3.5946,3.5958,3.5969,3.5987,3.6013,3.6051,3.6078,3.6095,3.6113,3.6144,3.6185,3.6166,3.6181,3.6174,3.62,3.626,3.6176,3.6176,3.619,3.6327,3.6341,3.6352,3.6249,3.6251,3.6252,3.6325,0,3.6001,3.6068,3.6062,3.6124,3.6154,3.6133,3.6166,3.618,3.6182,3.6207,3.6209,3.6238,3.6211,3.622,3.6245,3.6247,3.6287,3.6242,3.6276,3.6277,3.6271,3.6365,3.638,3.6447,3.6334,3.6335,3.6337,0,3.6099,3.6121,3.6187,3.6199,3.6211,3.6241,3.6264,3.6289,3.6304,3.6303,3.6319,3.6307,3.6344,3.6309,3.6358,3.6328,3.6341,3.6344,3.6347,3.6349,3.631,3.6367,3.6469,3.6479,3.6351,3.635,3.6349,0,3.6165,3.6211,3.6256,3.6266,3.6282,3.6303,3.6311,3.6324,3.634,3.636,3.637,3.6394,3.6407,3.6425,3.6419,3.6395,3.6469,3.6435,3.6468,3.6468,3.6484,3.6483,3.6588,3.6495,3.6495,3.6495,3.6495,0,3.625,3.629,3.6286,3.6313,3.6357,3.6349,3.6393,3.6398,3.6409,3.6436,3.6419,3.6445,3.6436,3.6461,3.6457,3.6497,3.6503,3.6503,3.6501,3.6503,3.6503,3.6511,3.6505,3.6498,3.6497,3.6496,3.6496,0,3.6331,3.633,3.6377,3.6388,3.6392,3.6424,3.6433,3.6458,3.6458,3.6492,3.65,3.65,3.6528,3.6525,3.6556,3.6553,3.6602,3.6596,3.6597,3.6595,3.6628,3.6625,3.6741,3.6755,3.6655,3.6656,3.6657,0,3.6385,3.6415,3.643,3.6446,3.6455,3.6483,3.6499,3.6492,3.6509,3.6528,3.655,3.6577,3.6597,3.6642,3.6645,3.6668,3.6661,3.67,3.6664,3.6665,3.6659,3.6657,3.6659,3.6706,3.6707,3.6708,3.6709,0,3.6479,3.6476,3.6501,3.6524,3.6544,3.6562,3.6578,3.6593,3.6587,3.6607,3.6635,3.6651,3.6683,3.6708,3.673,3.6736,3.6721,3.672,3.6729,3.6731,3.673,3.673,3.6615,3.6718,3.6717,3.6716,3.6716,3.6715,3.6547,3.6572,3.6586,3.6613,3.6624,3.6639,3.6663,3.6666,3.669,3.6715,3.6709,3.6741,3.6753,3.6781,3.6789,3.6813,3.6798,3.6812,3.6815,3.6818,3.6821,3.6728,3.6817,3.6817,3.6817,3.6816,3.6816,0,3.6638,3.6646,3.6671,3.6694,3.6715,3.6699,3.6716,3.6734,3.6762,3.6776,3.6796,3.6828,3.6852,3.6856,3.6879,3.6897,3.6891,3.6904,3.6901,3.6903,3.6833,3.6823,3.6908,3.6908,3.6908,3.6908,3.6908,3.6908,3.6688,3.673,3.6729,3.6775,3.6782,3.6813,3.6824,3.6837,3.6848,3.6884,3.6904,3.6907,3.6916,3.6939,3.6961,3.6961,3.697,3.6985,3.6982,3.6917,3.6908,3.6899,3.6889,3.6987,3.6987,3.705,3.705,3.7051]}]]